Location: Bats
(43.6587°N, 0.4584°W)
Time: 07:02:49
(UTC+00:00)

USA 238 DEB - Pass Details

Date: 12 January 2026
Orbit: 883 x 1328 km, 63.4° (Epoch: 10 January)

Event Time Altitude Azimuth Distance (km) Brightness Sun altitude
Rises 18:38:03 0° 323° (NW) 3,972 7.0 -19.6°
Reaches altitude 10° 18:40:39 10° 325° (NW) 3,070 6.4 -20.0°
Maximum altitude 18:48:08 80° 53° (NE) 1,267 3.9 -21.4°
Drops below altitude 10° 18:56:15 10° 140° (SE) 3,318 6.0 -22.8°
Enters shadow 18:56:31 - 140° (SE) 3,407 6.0 -22.9°
